This is the latest recevied weather packets stored in our database for station/object EA7OC-10. If no packets are shown the sender has not sent any weather packets the latest 10 day(s).
| Time | Temp. | Humidity | Pressure | Rain* | Wind** | Luminosity | Snow |
|---|---|---|---|---|---|---|---|
| 1777803175 | 30.56° C | 33% | 1016.1 hPa | - | - | - | - |
| 1777802275 | 30.56° C | 36% | 1016.2 hPa | - | - | - | - |
| 1777801375 | 29.44° C | 35% | 1016.2 hPa | - | - | - | - |
| 1777800475 | 28.89° C | 36% | 1016.2 hPa | - | - | - | - |
| 1777799575 | 28.89° C | 37% | 1016.3 hPa | - | - | - | - |
| 1777798675 | 28.33° C | 35% | 1016.2 hPa | - | - | - | - |
| 1777797775 | 29.44° C | 34% | 1016.3 hPa | - | - | - | - |
| 1777796870 | 30.56° C | 38% | 1016.1 hPa | - | - | - | - |
| 1777795970 | 28.89° C | 36% | 1016.1 hPa | - | - | - | - |
| 1777795070 | 28.33° C | 38% | 1016.2 hPa | - | - | - | - |
| 1777794170 | 25.56° C | 39% | 1016.2 hPa | - | - | - | - |
| 1777793267 | 23.33° C | 37% | 1016.1 hPa | - | - | - | - |
| 1777792367 | 23.33° C | 36% | 1016.1 hPa | - | - | - | - |
| 1777791467 | 23.33° C | 36% | 1016 hPa | - | - | - | - |
| 1777790566 | 22.22° C | 38% | 1015.9 hPa | - | - | - | - |
| 1777789666 | 20.56° C | 36% | 1015.7 hPa | - | - | - | - |
| 1777788766 | 20.56° C | 36% | 1015.6 hPa | - | - | - | - |
| 1777787866 | 20.56° C | 36% | 1015.4 hPa | - | - | - | - |
| 1777786966 | 20° C | 36% | 1015.4 hPa | - | - | - | - |
| 1777786063 | 20° C | 36% | 1015.4 hPa | - | - | - | - |
| 1777785163 | 20.56° C | 36% | 1015.5 hPa | - | - | - | - |
| 1777784263 | 20.56° C | 36% | 1015.5 hPa | - | - | - | - |
| 1777783362 | 20.56° C | 36% | 1015.6 hPa | - | - | - | - |
| 1777782462 | 20.56° C | 36% | 1015.6 hPa | - | - | - | - |
| 1777781562 | 21.11° C | 36% | 1015.5 hPa | - | - | - | - |
* Rain since midnight (hover to see other rain measurements)
** Current wind speed in m/s (hover to see current wind gust speed)